Change the Weather History Date:

Monday, March 18, 2013

  Actual Average (KHSV) Record (KHSV)
Temperature  
Mean Temperature 56 °F 54 °F  
Max Temperature 62 °F 66 °F 87 °F (1908)
Min Temperature 50 °F 43 °F 22 °F (1967)
Degree Days  
Heating Degree Days 9 11  
Month to date heating degree days 243  
Since 1 July heating degree days 2695  
Cooling Degree Days 0 0  
Month to date cooling degree days 0  
Year to date cooling degree days 1  
Growing Degree Days 6 (Base 50)    
Moisture  
Dew Point 51 °F    
Average Humidity 77    
Maximum Humidity 88    
Minimum Humidity 63    
Precipitation  
Precipitation 0.71 in 0.17 in 1.90 in (1897)
Month to date precipitation 2.99  
Year to date precipitation 12.72  
Snow  
Snow 0.00 in - - ()
Month to date snowfall  
Since 1 July snowfall  
Snow Depth -    
Sea Level Pressure  
Sea Level Pressure 29.82 in    
Wind  
Wind Speed 12 mph (SSW)    
Max Wind Speed 26 mph    
Max Gust Speed 39 mph    
Visibility 9 miles    
Events Rain , Thunderstorm    
T = Trace of Precipitation, MM = Missing Value Source: NWS Daily Summary

Daily Weather History Graph

Daily Weather History Graph

Search for Another Location

Airport or City:

Trip Planner

Search our weather history database for the weather conditions in past years. The results will help you decide how hot, cold, wet, or windy it might be!

Date:

Astronomy

Mar. 18, 2013 Rise Set
Actual Time 6:52 AM CDT 6:56 PM CDT
Civil Twilight 6:27 AM CDT 7:21 PM CDT
Nautical Twilight 5:57 AM CDT 7:51 PM CDT
Astronomical Twilight 5:28 AM CDT 8:20 PM CDT
Moon 11:04 AM CDT (3/18) 12:42 AM CDT (3/18)
Length of Visible Light 12h 54m
Length of Day
12h 04m
Waxing Crescent, 41% of the Moon is Illuminated
Mar 18
Waxing Crescent
Mar 19
First Quarter
Mar 27
Full
Apr 2
Last Quarter
Apr 10
New

Hourly Weather History & Observations

Time (CDT) Temp. Dew Point Humidity Pressure Visibility Wind Dir Wind Speed Gust Speed Precip Events Conditions
12:15 AM 60.8 °F 48.2 °F 63% 29.84 in 10.0 mi SSE 11.5 mph 17.3 mph N/A   Overcast
12:35 AM 62.6 °F 50.0 °F 63% 29.84 in 10.0 mi South 12.7 mph 23.0 mph N/A   Overcast
12:55 AM 62.6 °F 50.0 °F 63% 29.84 in 10.0 mi South 17.3 mph 21.9 mph N/A   Overcast
1:15 AM 62.6 °F 50.0 °F 63% 29.84 in 10.0 mi South 13.8 mph 24.2 mph N/A   Overcast
1:35 AM 62.6 °F 50.0 °F 63% 29.84 in 10.0 mi South 16.1 mph - N/A   Overcast
1:55 AM 62.6 °F 51.8 °F 68% 29.84 in 10.0 mi South 15.0 mph 23.0 mph N/A   Overcast
2:15 AM 62.6 °F 51.8 °F 68% 29.84 in 10.0 mi South 13.8 mph 21.9 mph N/A   Overcast
2:35 AM 62.6 °F 51.8 °F 68% 29.84 in 10.0 mi South 12.7 mph 19.6 mph N/A   Overcast
2:55 AM 62.6 °F 51.8 °F 68% 29.84 in 10.0 mi South 16.1 mph 20.7 mph N/A   Overcast
3:15 AM 62.6 °F 51.8 °F 68% 29.83 in 10.0 mi South 15.0 mph 25.3 mph N/A   Overcast
3:35 AM 62.6 °F 51.8 °F 68% 29.83 in 10.0 mi South 16.1 mph 20.7 mph N/A   Overcast
3:55 AM 62.6 °F 51.8 °F 68% 29.83 in 10.0 mi South 18.4 mph 25.3 mph N/A   Overcast
4:15 AM 62.6 °F 51.8 °F 68% 29.82 in 10.0 mi South 17.3 mph 25.3 mph N/A   Overcast
4:35 AM 62.6 °F 51.8 °F 68% 29.83 in 10.0 mi South 18.4 mph 24.2 mph N/A   Overcast
4:55 AM 62.6 °F 51.8 °F 68% 29.83 in 10.0 mi South 17.3 mph 23.0 mph N/A   Overcast
5:15 AM 62.6 °F 51.8 °F 68% 29.83 in 10.0 mi South 16.1 mph - N/A   Overcast
5:35 AM 62.6 °F 51.8 °F 68% 29.83 in 10.0 mi South 15.0 mph - N/A   Overcast
5:55 AM 60.8 °F 51.8 °F 72% 29.83 in 10.0 mi South 15.0 mph 20.7 mph N/A   Overcast
6:15 AM 60.8 °F 51.8 °F 72% 29.83 in 10.0 mi South 16.1 mph 23.0 mph N/A   Overcast
6:35 AM 60.8 °F 51.8 °F 72% 29.83 in 10.0 mi South 16.1 mph 21.9 mph N/A   Overcast
6:55 AM 60.8 °F 51.8 °F 72% 29.83 in 10.0 mi South 11.5 mph 21.9 mph N/A   Overcast
7:15 AM 60.8 °F 51.8 °F 72% 29.83 in 10.0 mi South 13.8 mph 18.4 mph N/A Rain Light Rain
7:35 AM 60.8 °F 51.8 °F 72% 29.82 in 10.0 mi South 16.1 mph 21.9 mph N/A   Overcast
7:55 AM 60.8 °F 51.8 °F 72% 29.82 in 7.0 mi South 13.8 mph 19.6 mph N/A Rain Light Rain
8:15 AM 60.8 °F 53.6 °F 77% 29.82 in 10.0 mi South 11.5 mph 21.9 mph N/A   Overcast
8:35 AM 60.8 °F 53.6 °F 77% 29.82 in 10.0 mi South 13.8 mph 19.6 mph N/A Thunderstorm Overcast
8:55 AM 60.8 °F 53.6 °F 77% 29.82 in 10.0 mi South 15.0 mph 18.4 mph N/A Thunderstorm Overcast
9:15 AM 60.8 °F 53.6 °F 77% 29.82 in 10.0 mi South 13.8 mph - N/A   Overcast
9:35 AM 60.8 °F 53.6 °F 77% 29.82 in 10.0 mi South 13.8 mph - N/A   Overcast
9:55 AM 60.8 °F 53.6 °F 77% 29.82 in 10.0 mi South 11.5 mph - N/A   Overcast
10:15 AM 60.8 °F 53.6 °F 77% 29.81 in 10.0 mi South 16.1 mph 19.6 mph N/A   Overcast
10:35 AM 60.8 °F 53.6 °F 77% 29.81 in 7.0 mi South 11.5 mph 18.4 mph 0.02 in Rain , Thunderstorm Light Thunderstorms and Rain
10:55 AM 60.8 °F 55.4 °F 82% 29.81 in 5.0 mi SSW 11.5 mph - 0.03 in Rain , Thunderstorm Light Thunderstorms and Rain
11:15 AM 60.8 °F 55.4 °F 82% 29.81 in 5.0 mi South 12.7 mph 17.3 mph 0.01 in Rain , Thunderstorm Light Thunderstorms and Rain
11:35 AM 60.8 °F 55.4 °F 82% 29.81 in 3.0 mi South 16.1 mph - 0.01 in Rain , Thunderstorm Light Thunderstorms and Rain
11:55 AM 60.8 °F 55.4 °F 82% 29.80 in 4.0 mi South 12.7 mph - 0.02 in Rain , Thunderstorm Rain
12:15 PM 60.8 °F 55.4 °F 82% 29.79 in 4.0 mi South 10.4 mph - N/A Rain , Thunderstorm Light Thunderstorms and Rain
12:35 PM 60.8 °F 55.4 °F 82% 29.80 in 5.0 mi South 10.4 mph - N/A Thunderstorm Drizzle
12:55 PM 60.8 °F 55.4 °F 82% 29.78 in 4.0 mi SSW 9.2 mph - 0.01 in Rain , Thunderstorm Rain
1:15 PM 60.8 °F 57.2 °F 88% 29.79 in 5.0 mi SW 5.8 mph - 0.04 in Rain , Thunderstorm Light Thunderstorms and Rain
1:35 PM 55.4 °F 50.0 °F 82% 29.78 in 1.5 mi WSW 11.5 mph 25.3 mph 0.34 in Rain , Thunderstorm Heavy Thunderstorms and Rain
1:55 PM 57.2 °F 51.8 °F 82% 29.78 in 7.0 mi SSW 10.4 mph 16.1 mph 0.41 in Rain , Thunderstorm Light Thunderstorms and Rain
2:15 PM 57.2 °F 51.8 °F 82% 29.77 in 7.0 mi Calm Calm - N/A Rain , Thunderstorm Light Thunderstorms and Rain
2:35 PM 55.4 °F 51.8 °F 88% 29.77 in 4.0 mi NNW 10.4 mph - 0.04 in Rain , Thunderstorm Light Thunderstorms and Rain
2:55 PM 57.2 °F 53.6 °F 88% 29.75 in 5.0 mi NE 3.5 mph - 0.06 in Rain , Thunderstorm Heavy Thunderstorms and Rain
3:15 PM 57.2 °F 53.6 °F 88% 29.82 in 1.8 mi West 26.5 mph 39.1 mph 0.10 in Rain , Thunderstorm Heavy Thunderstorms and Rain
3:35 PM 53.6 °F 48.2 °F 82% 29.84 in 5.0 mi WNW 10.4 mph - 0.14 in Rain , Thunderstorm Rain
3:55 PM 55.4 °F 50.0 °F 82% 29.85 in 7.0 mi SW 9.2 mph - 0.17 in Rain , Thunderstorm Rain
4:15 PM 55.4 °F 50.0 °F 82% 29.79 in 10.0 mi South 8.1 mph - 0.01 in Rain , Thunderstorm Light Thunderstorms and Rain
4:35 PM 55.4 °F 50.0 °F 82% 29.79 in 10.0 mi SSE 9.2 mph - 0.01 in   Scattered Clouds
4:55 PM 55.4 °F 50.0 °F 82% 29.78 in 10.0 mi SSE 8.1 mph - 0.01 in   Clear
5:15 PM 55.4 °F 50.0 °F 82% 29.76 in 10.0 mi Calm Calm - N/A   Scattered Clouds
5:35 PM 55.4 °F 50.0 °F 82% 29.76 in 10.0 mi Calm Calm - N/A   Clear
5:55 PM 57.2 °F 50.0 °F 77% 29.75 in 10.0 mi Calm Calm - N/A   Clear
6:15 PM 57.2 °F 50.0 °F 77% 29.76 in 10.0 mi Calm Calm - N/A   Clear
6:35 PM 55.4 °F 50.0 °F 82% 29.77 in 10.0 mi WSW 3.5 mph - N/A   Clear
6:55 PM 55.4 °F 50.0 °F 82% 29.78 in 10.0 mi Calm Calm - N/A   Clear
7:15 PM 53.6 °F 48.2 °F 82% 29.79 in 10.0 mi NNW 6.9 mph - N/A   Clear
7:35 PM 53.6 °F 50.0 °F 88% 29.81 in 10.0 mi NW 5.8 mph - N/A   Scattered Clouds
7:55 PM 53.6 °F 50.0 °F 88% 29.81 in 10.0 mi Calm Calm - N/A   Mostly Cloudy
8:15 PM 53.6 °F 50.0 °F 88% 29.82 in 10.0 mi Calm Calm - N/A   Mostly Cloudy
8:35 PM 53.6 °F 50.0 °F 88% 29.84 in 10.0 mi NW 5.8 mph - N/A   Overcast
8:55 PM 53.6 °F 50.0 °F 88% 29.85 in 10.0 mi WNW 5.8 mph - N/A   Mostly Cloudy
9:15 PM 53.6 °F 50.0 °F 88% 29.86 in 10.0 mi NW 6.9 mph - N/A   Scattered Clouds
9:35 PM 53.6 °F 48.2 °F 82% 29.87 in 10.0 mi NNW 12.7 mph 18.4 mph N/A   Mostly Cloudy
9:55 PM 53.6 °F 46.4 °F 77% 29.89 in 10.0 mi NNW 11.5 mph - N/A   Mostly Cloudy
10:15 PM 51.8 °F 44.6 °F 76% 29.91 in 10.0 mi NNW 9.2 mph - N/A   Scattered Clouds
10:55 PM 51.8 °F 44.6 °F 76% 29.93 in 10.0 mi NNW 8.1 mph - N/A   Overcast
11:15 PM 51.8 °F 44.6 °F 76% 29.94 in 10.0 mi NNW 11.5 mph - N/A   Scattered Clouds
11:35 PM 50.0 °F 44.6 °F 82% 29.95 in 10.0 mi NNW 11.5 mph - N/A   Mostly Cloudy
11:55 PM 50.0 °F 42.8 °F 76% 29.96 in 10.0 mi North 10.4 mph - N/A   Overcast